TimeCDT,TemperatureF,Dew PointF,Humidity,Sea Level PressureIn,VisibilityMPH,Wind Direction,Wind SpeedMPH,Gust SpeedMPH,PrecipitationIn,Events,Conditions,WindDirDegrees,DateUTC
12:15 AM,75.2,57.2,53,30.00,5.0,North,-9999.0,-,N/A,,Haze,0,2013-06-13 05:15:00
12:35 AM,73.4,57.2,57,30.00,5.0,North,-9999.0,-,N/A,,Haze,0,2013-06-13 05:35:00
12:55 AM,73.4,57.2,57,30.00,5.0,Calm,Calm,-,N/A,,Haze,0,2013-06-13 05:55:00
1:15 AM,73.4,57.2,57,29.99,4.0,Calm,Calm,-,N/A,,Haze,0,2013-06-13 06:15:00
1:35 AM,73.4,57.2,57,29.99,5.0,North,-9999.0,-,N/A,,Haze,0,2013-06-13 06:35:00
1:55 AM,73.4,55.4,53,29.99,6.0,North,-9999.0,-,N/A,,Haze,0,2013-06-13 06:55:00
2:15 AM,73.4,55.4,53,29.99,5.0,North,-9999.0,-,N/A,,Haze,0,2013-06-13 07:15:00
2:35 AM,73.4,55.4,53,29.99,5.0,North,-9999.0,-,N/A,,Haze,0,2013-06-13 07:35:00
2:55 AM,73.4,55.4,53,29.98,6.0,Calm,Calm,-,N/A,,Haze,0,2013-06-13 07:55:00
3:15 AM,75.2,59.0,57,29.97,8.0,North,-9999.0,-,N/A,,Clear,0,2013-06-13 08:15:00
3:35 AM,77.0,60.8,57,29.97,7.0,North,-9999.0,-,N/A,,Clear,0,2013-06-13 08:35:00
3:55 AM,77.0,60.8,57,29.98,7.0,North,-9999.0,-,N/A,,Clear,0,2013-06-13 08:55:00
4:15 AM,75.2,57.2,53,29.98,7.0,North,-9999.0,-,N/A,,Clear,0,2013-06-13 09:15:00
4:35 AM,73.4,57.2,57,29.97,6.0,North,-9999.0,-,N/A,,Haze,0,2013-06-13 09:35:00
4:55 AM,73.4,57.2,57,29.98,7.0,North,-9999.0,-,N/A,,Clear,0,2013-06-13 09:55:00
5:15 AM,73.4,57.2,57,29.98,5.0,North,-9999.0,-,N/A,,Haze,0,2013-06-13 10:15:00
5:35 AM,73.4,57.2,57,29.98,6.0,North,-9999.0,-,N/A,,Haze,0,2013-06-13 10:35:00
5:55 AM,73.4,57.2,57,29.99,5.0,North,-9999.0,-,N/A,,Haze,0,2013-06-13 10:55:00
6:15 AM,75.2,57.2,53,29.99,5.0,North,-9999.0,-,N/A,,Haze,0,2013-06-13 11:15:00
6:35 AM,75.2,59.0,57,29.99,5.0,North,-9999.0,-,N/A,,Haze,0,2013-06-13 11:35:00
6:55 AM,77.0,60.8,57,30.00,5.0,North,-9999.0,-,N/A,,Haze,0,2013-06-13 11:55:00
7:15 AM,78.8,60.8,54,30.00,5.0,North,-9999.0,-,N/A,,Haze,0,2013-06-13 12:15:00
7:35 AM,78.8,62.6,57,30.00,5.0,North,-9999.0,-,N/A,,Haze,0,2013-06-13 12:35:00
7:55 AM,80.6,64.4,58,30.01,5.0,North,-9999.0,-,N/A,,Haze,0,2013-06-13 12:55:00
8:15 AM,82.4,64.4,54,30.01,5.0,North,-9999.0,-,N/A,,Haze,0,2013-06-13 13:15:00
8:35 AM,82.4,66.2,58,30.01,6.0,North,-9999.0,-,N/A,,Haze,0,2013-06-13 13:35:00
8:55 AM,84.2,66.2,55,30.01,6.0,North,-9999.0,-,N/A,,Haze,0,2013-06-13 13:55:00
9:15 AM,86.0,68.0,55,30.00,8.0,North,-9999.0,-,N/A,,Clear,0,2013-06-13 14:15:00
9:35 AM,87.8,69.8,55,29.99,7.0,North,-9999.0,-,N/A,,Clear,0,2013-06-13 14:35:00
9:55 AM,89.6,71.6,55,29.99,6.0,North,-9999.0,-,N/A,,Haze,0,2013-06-13 14:55:00
10:15 AM,89.6,71.6,55,29.98,7.0,North,-9999.0,-,N/A,,Clear,0,2013-06-13 15:15:00
10:35 AM,91.4,73.4,55,29.98,7.0,North,-9999.0,-,N/A,,Clear,0,2013-06-13 15:35:00
10:55 AM,91.4,73.4,55,29.98,7.0,North,-9999.0,-,N/A,,Clear,0,2013-06-13 15:55:00
11:15 AM,91.4,73.4,55,29.97,8.0,North,-9999.0,-,N/A,,Clear,0,2013-06-13 16:15:00
11:35 AM,93.2,75.2,56,29.96,7.0,North,-9999.0,-,N/A,,Clear,0,2013-06-13 16:35:00
11:55 AM,93.2,75.2,56,29.96,7.0,North,-9999.0,-,N/A,,Partly Cloudy,0,2013-06-13 16:55:00
12:15 PM,93.2,75.2,56,29.95,7.0,North,-9999.0,-,N/A,,Partly Cloudy,0,2013-06-13 17:15:00
12:35 PM,93.2,75.2,56,29.95,8.0,North,-9999.0,-,N/A,,Partly Cloudy,0,2013-06-13 17:35:00
12:55 PM,93.2,75.2,56,29.94,8.0,North,-9999.0,-,N/A,,Scattered Clouds,0,2013-06-13 17:55:00
1:15 PM,93.2,75.2,56,29.93,8.0,North,-9999.0,-,N/A,,Scattered Clouds,0,2013-06-13 18:15:00
1:35 PM,95.0,77.0,56,29.92,7.0,North,-9999.0,-,N/A,,Partly Cloudy,0,2013-06-13 18:35:00
1:55 PM,95.0,77.0,56,29.92,7.0,North,-9999.0,-,N/A,,Scattered Clouds,0,2013-06-13 18:55:00
2:15 PM,96.8,78.8,56,29.92,8.0,North,-9999.0,-,N/A,,Partly Cloudy,0,2013-06-13 19:15:00
2:35 PM,96.8,78.8,56,29.91,8.0,North,-9999.0,-,N/A,,Partly Cloudy,0,2013-06-13 19:35:00
2:55 PM,95.0,77.0,56,29.90,8.0,North,-9999.0,-,N/A,,Partly Cloudy,0,2013-06-13 19:55:00
3:15 PM,96.8,78.8,56,29.89,8.0,North,-9999.0,-,N/A,,Partly Cloudy,0,2013-06-13 20:15:00
3:35 PM,95.0,77.0,56,29.89,8.0,North,-9999.0,-,N/A,,Clear,0,2013-06-13 20:35:00
3:55 PM,96.8,78.8,56,29.88,7.0,North,-9999.0,-,N/A,,Partly Cloudy,0,2013-06-13 20:55:00
4:15 PM,96.8,78.8,56,29.87,7.0,North,-9999.0,-,N/A,,Partly Cloudy,0,2013-06-13 21:15:00
4:35 PM,93.2,75.2,56,29.86,8.0,North,-9999.0,-,N/A,,Partly Cloudy,0,2013-06-13 21:35:00
4:55 PM,95.0,77.0,56,29.85,8.0,North,-9999.0,-,N/A,,Clear,0,2013-06-13 21:55:00
5:15 PM,93.2,75.2,56,29.85,7.0,North,-9999.0,-,N/A,,Partly Cloudy,0,2013-06-13 22:15:00
5:35 PM,91.4,73.4,55,29.85,8.0,North,-9999.0,-,N/A,,Partly Cloudy,0,2013-06-13 22:35:00
5:55 PM,89.6,71.6,55,29.85,5.0,North,-9999.0,-,N/A,,Haze,0,2013-06-13 22:55:00
6:15 PM,86.0,69.8,58,29.85,2.0,North,-9999.0,-,0.03,Rain,Rain,0,2013-06-13 23:15:00
6:35 PM,82.4,66.2,58,29.85,5.0,North,-9999.0,-,0.04,,Haze,0,2013-06-13 23:35:00
6:55 PM,82.4,66.2,58,29.84,6.0,North,-9999.0,-,0.04,,Haze,0,2013-06-13 23:55:00
7:15 PM,84.2,68.0,58,29.85,7.0,North,-9999.0,-,N/A,,Scattered Clouds,0,2013-06-14 00:15:00
7:35 PM,84.2,66.2,55,29.86,7.0,Calm,Calm,-,N/A,,Partly Cloudy,0,2013-06-14 00:35:00
7:55 PM,82.4,66.2,58,29.86,7.0,North,-9999.0,-,N/A,,Clear,0,2013-06-14 00:55:00
8:15 PM,82.4,64.4,54,29.86,7.0,North,-9999.0,-,N/A,,Clear,0,2013-06-14 01:15:00
8:35 PM,80.6,64.4,58,29.87,10.0,North,-9999.0,-,N/A,,Clear,0,2013-06-14 01:35:00
8:55 PM,80.6,62.6,54,29.88,10.0,North,-9999.0,-,N/A,,Clear,0,2013-06-14 01:55:00
9:15 PM,78.8,62.6,57,29.89,10.0,North,-9999.0,-,N/A,,Clear,0,2013-06-14 02:15:00
9:35 PM,78.8,60.8,54,29.91,10.0,North,-9999.0,-,N/A,,Clear,0,2013-06-14 02:35:00
9:55 PM,78.8,60.8,54,29.91,10.0,North,-9999.0,-,N/A,,Clear,0,2013-06-14 02:55:00
10:15 PM,77.0,60.8,57,29.92,10.0,North,-9999.0,-,N/A,,Clear,0,2013-06-14 03:15:00
10:35 PM,77.0,60.8,57,29.93,10.0,North,-9999.0,-,N/A,,Clear,0,2013-06-14 03:35:00
10:55 PM,75.2,59.0,57,29.93,10.0,North,-9999.0,-,N/A,,Clear,0,2013-06-14 03:55:00
11:15 PM,75.2,57.2,53,29.93,10.0,North,-9999.0,-,N/A,,Clear,0,2013-06-14 04:15:00
11:35 PM,75.2,57.2,53,29.93,10.0,North,-9999.0,-,N/A,,Clear,0,2013-06-14 04:35:00
11:55 PM,75.2,57.2,53,29.94,10.0,North,-9999.0,-,N/A,,Clear,0,2013-06-14 04:55:00